www.pogodaiklimat.ru

Погода и климат >> Архив погоды >> Канада >> Spence bay


ПОГОДА в Spence bay

  • Прогноз погоды в Spence bay
  • Монитор погоды в Spence bay
  • Климат города

АРХИВ ПОГОДЫ в Spence bay

Время (UTC), дата Ветер
(напр.,м/с)
 
Видим.   Явления Облачность Т
(С)
Тd
(С)
f
(%)
Тe
(С)
Тes
(С)
Комфортность P
(гПа)
Po
(гПа)
Тmin
(С)
Tmax
(С)
R
(мм)
R24
(мм)
S
(см)
03 16.10 Ю 4 16 км 10/10 300 м
[]
-12.8 -15.3 81 -20 -20 1007.1 1003.5
09 16.10 Ю 4 16 км 10/10 300 м
[]
-13.2 -15.7 81 -20 -20 1006.6 1003.0
12 16.10 Ю 6 9000 м слабый ливневой снег 9/9 1000 м
[Sc Ac trans]
-12.2 -14.9 80 -21 -21 1006.3 1002.7 -13.5 0.2 3
15 16.10 ЮВ 5 6000 м 10/10 300 м
[]
-11.6 -14.1 82 -19 -19 1006.4 1002.8
18 16.10 ЮЗ 4 24 км слабый снег 6/6 300 м
[Sc Ac trans]
-10.8 -12.8 85 -18 -18 1006.7 1003.1 -13.5 -10.6 0.2 3
21 16.10 ЮВ 3 4800 м 6/6 300 м
[]
-10.2 -12.3 85 -16 -16 1007.1 1003.5
00 17.10 С 3 24 км слабый снег 9/9 200 м
[Sc]
-11.4 -13.6 84 -17 -17 1008.4 1004.8 -13.5 -9.7 0.6 4
03 17.10 С 4 24 км 3/3 600 м
[]
-18.0 -20.2 83 -27 -27 1009.3 1005.7
06 17.10 СВ 4 24 км ледяные иглы {снег} ясно -19.6 -22.1 80 -28 -28 1010.1 1006.4 -20.2 -9.7 0.0 140
09 17.10 С 1 24 км 6/6 1000 м
[]
-20.2 -22.9 79 -21 -21 1011.0 1007.3
12 17.10 С 1 24 км {снег} 9/9 1000 м
[Sc]
-15.0 -17.4 82 -15 -15 1011.2 1007.6 -22.7 -9.7 0.0 4
15 17.10 В 1 24 км 9/9 600 м
[]
-13.2 -15.7 81 -16 -16 1010.8 1007.1
18 17.10 СВ 1 24 км 9/8 300 м
[Sc]
-12.2 -14.8 81 -14 -14 1010.7 1007.0 -22.7 -12.2 4
21 17.10 В 1 24 км 9/9 300 м
[]
-11.3 -13.7 82 -14 -14 1010.6 1006.9
00 18.10 В 2 24 км слабый снег 9/8 300 м
[Sc]
-10.8 -13.1 83 -15 -15 1010.5 1006.9 -22.7 -10.8 0.0 4
06 18.10 Ю 2 24 км слабый снег 8/8 300 м
[Sc]
-10.7 -12.5 87 -14 -14 1010.6 1007.0 0.4 7
09 18.10 Ю 3 24 км 9/9 300 м
[]
-11.0 -13.4 82 -17 -17 1011.0 1007.4
12 18.10 С 1 24 км слабый снег 8/8 1000 м
[Sc]
-10.7 -13.5 80 -11 -11 1011.2 1007.6 0.0 4
15 18.10 В 3 24 км 9/9 300 м
[]
-10.0 -12.7 81 -16 -16 1011.1 1007.5
21 18.10 В 4 24 км 8/8 600 м
[]
-10.9 -14.9 72 -18 -18 1011.3 1007.7
00 19.10 В 6 24 км {снег} 3/3 600 м
[Sc Ac trans]
-12.3 -15.9 74 -21 -21 1011.3 1007.7 0.2 4
06 19.10 В 4 24 км ясно -12.7 -15.0 83 -20 -20 1010.6 1007.0 23
09 19.10 В 7 24 км 5/5 300 м
[]
-10.7 -13.6 79 -20 -20 1011.2 1007.6
12 19.10 В 7 24 км слабый снег 3/3 600 м
[Sc]
-10.8 -14.1 77 -20 -20 1011.4 1007.8 -13.4 0.0 4
15 19.10 В 6 24 км 10/10 300 м
[]
-9.9 -13.0 78 -19 -19 1011.8 1008.2
18 19.10 ЮВ 7 8000 м слабый снег 10/10 300 м
[Sc]
-9.6 -11.8 84 -19 -19 1012.1 1008.5 -13.4 -9.3 0.2 4
21 19.10 ЮВ 6 4800 м 10/10 300 м
[]
-9.6 -11.4 87 -18 -18 1012.9 1009.3
00 20.10 ЮВ 4 16 км слабый снег 9/8 200 м
[Sc]
-10.4 -11.9 89 -18 -18 1013.2 1009.6 -12.8 -9.3 0.2 4
03 20.10 ЮВ 4 24 км 10/10 200 м
[]
-9.7 -11.2 89 -16 -16 1013.0 1009.4
06 20.10 ЮВ 4 9000 м слабый снег 10/10 200 м
[Sc]
-9.6 -11.4 87 -16 -16 1013.1 1009.5 -12.8 -9.3 0.0 10
09 20.10 В 2 24 км 10/10 200 м
[]
-10.6 -12.6 85 -15 -15 1013.0 1009.4
12 20.10 В 3 4800 м слабый снег 10/10 50 м
[St]
-7.3 -8.5 91 -13 -13 1012.8 1009.2 -10.9 -9.3 0.2 4
15 20.10 Ю 6 24 км 9/9 300 м
[]
-7.4 -9.0 88 -15 -15 1013.0 1009.4
18 20.10 1600 м слабый снег {туман} н/о -6.1 -7.2 92 -15 -15 1013.2 1009.6 -10.9 -6.1 0.2 4
21 20.10 Ю 7 24 км 9/9 300 м
[]
-5.6 -7.0 90 -14 -14 1012.9 1009.3
00 21.10 3200 м слабый ливневой снег н/о -5.1 -6.4 91 -13 -13 1012.4 1008.8 -10.9 -5.1 0.2 4
03 21.10 ЮВ 7 1600 м 9/9 100 м
[]
-4.5 -5.6 92 -13 -13 1011.5 1007.9
06 21.10 1600 м слабый ливневой снег н/о -3.2 -4.1 93 -12 -12 1011.1 1007.5 -10.9 -3.2 2 191
09 21.10 Ю 7 1600 м 8/8 100 м
[]
-2.3 -3.0 95 -10 -10 1011.2 1007.6
12 21.10 3200 м слабый ливневой снег н/о -2.2 -3.0 94 -10 -10 1011.7 1008.1 -5.1 -3.2 0.8 6
15 21.10 Ю 7 6000 м 9/9 100 м
[]
-2.2 -3.0 94 -10 -10 1011.9 1008.3
18 21.10 3200 м слабый снег н/о -2.5 -3.3 94 -11 -11 1012.2 1008.6 -6.5 -2.0 0.2 6
21 21.10 Ю 7 1600 м 9/9 100 м
[]
-2.3 -3.1 94 -10 -10 1011.4 1007.8
00 22.10 ЮВ 7 19 км слабый снег {ливн. осадки} 10/10 300 м
[Sc]
-1.7 -3.2 89 -9 -9 1009.8 1006.2 -3.2 -1.6 2 8
03 22.10 ЮВ 11 6000 м 8/8 300 м
[]
-2.2 -3.2 93 -12 -12 1006.6 1003.0
06 22.10 4800 м слабый ливневой снег н/о -2.0 -3.2 91 -12 -12 1001.9 998.3 -3.2 -1.6 3 61
09 22.10 ЮВ 9 6000 м 9/9 200 м
[]
-1.9 -3.2 91 -11 -11 998.4 994.9
12 22.10 4800 м слабый ливневой снег н/о -1.1 -1.8 95 -7 -7 995.8 992.3 -2.2 -1.6 0.6 11
15 22.10 Ю 3 1600 м 8/8 100 м
[]
-1.0 -1.4 97 -6 -6 995.3 991.8
18 22.10 9000 м слабый снег н/о -1.4 -1.8 97 -6 -6 995.6 992.1 -2.5 -0.9 0.4 12
21 22.10 СЗ 5 24 км 3/3 100 м
[]
-5.3 -6.3 93 -12 -12 996.9 993.4

 

Местоположение метеостанции Spence bay (Канада): широта 69.55 долгота -93.58 высота над уровнем моря 28 м.

В архиве по умолчанию представлена погода в Spence bay за последнюю неделю. Архивные данные за месяц целиком и за предыдущие месяцы, начиная с января 2011 года, Вы можете получить, выбрав интересующий диапазон дат из раскрывающегося списка и нажав кнопку "Ввод!".

Внимание! Время в таблицах - всемирное. Для получения местного времени необходимо прибавить поправку, которая в Spence bay равна -6 ч.

Смотрите также архив погоды в соседних городах и на ближайших метеорологических станциях:

Погода в Shepherd Bay (Канада) (81 км)
Погода в Gjoa Haven Climate (Канада) (136 км)
Погода в Kugaaruk climate (Канада) (188 км)
Погода в Pelly Bay (Канада) (198 км)
Погода в Hat Island (Канада) (291 км)
Погода в Back River MAPS (Канада) (405 км)
Погода в Wager Bay (Канада) (444 км)
Погода в Cambridge Bay Gsn (Канада) (454 км)
Погода в Cambridge Bay Arpt (Канада) (454 км)
Погода в Ellice River AWS (Канада) (486 км)

Пояснения к столбцам:

Ветер - указаны скорость ветра в м/с - средняя за 10 мин, порывы в срок и между сроками (в фигурных скобках) и направление, откуда дует ветер: С - северный, СВ - северо-восточный, В - восточный, ЮВ - юго-восточный, Ю - южный, ЮЗ - юго-западный, З - западный, СЗ - северо-западный.
Видимость - горизонтальная дальность видимости в метрах или километрах. При видимости от 1 до 10 км при отсутствии осадков обычно наблюдается дымка, при ухудшении видимости до 1 км и менее - туман. В сухую погоду видимость может ухудшаться дымом, пылью или мглою.
Явления - указаны атмосферные явления, наблюдавшиеся в срок или в последний час перед сроком; фигурными скобками обозначены явления, наблюдавшиеся между сроками (за 1-3 часа до срока); квадратными скобками обозначены град или гололедные отложения с указанием их диаметра в мм.
Облачность - указаны через наклонную черту общая и нижняя облачность в баллах и высота нижней границы облаков в метрах; квадратными скобками обозначены формы облаков: Ci - перистые, Cs - перисто-слоистые, Cc - перисто-кучевые, Ac - высококучевые, As - высокослоистые, Sc - слоисто-кучевые, Ns - слоисто-дождевые, Cu - кучевые, Cb - кучево-дождевые. Подробнее классификацию облаков см. в Атласе облаков (PDF).
T - Температура воздуха - температура, измеренная на высоте 2 м над землей.
Td - Температура точки росы - температура, при понижении до которой содержащийся в воздухе водяной пар достигнет насыщения.
f - Относительная влажность воздуха - влажноcть воздуха, измеренная на высоте 2 м над землей.
Te - Эффективная температура - температура, которую ощущает одетый по сезону человек в тени. Характеристика душности погоды. При расчете учитывается влияние влажности воздуха и скорости ветра на теплоощущения человека.
Tes - Эффективная температура на солнце - температура, которую ощущает человек, с поправкой на солнечный нагрев. Характеристика знойности погоды. Зависит от высоты солнца над горизонтом, облачности и скорости ветра. Ночью, в пасмурную погоду, а также при ветре 12 м/с и более поправка равна нулю.
P - Атмосферное давление - приведенное к уровню моря атмосферное давление.
Po - Атмосферное давление - измеренное на уровне метеостанции атмосферное давление.
Tmin - Минимальная температура - минимум температуры воздуха на высоте 2 м над землей.
Tmax - Максимальная температура - максимум температуры воздуха на высоте 2 м над землей.
R - Количество осадков - Количество выпавших осадков за период времени, мм. При наведении курсора мыши на число - период времени, за который выпало указанное количество осадков.
R24 - Количество осадков - Количество выпавших осадков за 24 часа, мм.
S - Снежный покров - Высота снежного покрова, см. При наведении курсора мыши на число - состояние снежного покрова и степень покрытия местности в баллах.